FW2536 Weather Reports


time (UTC)temp
F
wind
direction
speed
knots
gust
knots
rain 1hr
in
rain 24hr
in
rain mn
in
humidity
%
barometer
mb
20260508104558 37 360 0.0 1.7 0.00 0.22 0.19 64 1013.9
20260508103050 37 360 0.0 0.0 0.00 0.22 0.19 63 1013.5
20260508101548 37 360 0.0 1.7 0.00 0.22 0.19 63 1013.6
20260508100044 38 360 0.0 2.6 0.00 0.22 0.19 63 1013.5
20260508094547 38 360 0.9 4.3 0.00 0.22 0.19 63 1013.5
20260508093050 36 360 0.0 0.9 0.00 0.22 0.19 59 1013.6
20260508091553 36 360 0.0 0.0 0.00 0.22 0.19 59 1013.4
20260508090052 37 360 0.0 0.0 0.00 0.22 0.19 59 1013.2
20260508084538 37 360 0.0 1.7 0.00 0.22 0.19 59 1013.2
20260508083036 36 360 0.0 0.9 0.00 0.22 0.19 58 1013.0
20260508081540 37 360 0.0 0.0 0.00 0.22 0.19 58 1012.9
20260508080042 37 360 0.0 0.9 0.00 0.22 0.19 57 1013.1
20260508074532 38 360 0.0 0.9 0.00 0.22 0.19 57 1013.0
20260508073038 38 360 0.0 0.9 0.00 0.22 0.19 57 1012.8
20260508071531 38 360 0.0 0.9 0.00 0.22 0.19 57 1012.9
20260508070040 39 360 0.0 0.9 0.00 0.22 0.19 57 1012.9
20260508064532 39 360 0.0 0.0 0.00 0.22 0.19 57 1012.9
20260508063024 40 360 0.0 0.0 0.01 0.22 0.19 57 1012.8
20260508061522 40 360 0.0 0.0 0.02 0.22 0.19 56 1012.9
20260508060024 41 360 0.0 0.0 0.06 0.22 0.19 56 1013.0
20260508054527 41 360 0.0 1.7 0.10 0.22 0.19 56 1013.1
20260508053018 41 360 0.0 2.6 0.12 0.21 0.18 56 1013.2
20260508051517 41 360 0.9 5.2 0.15 0.20 0.17 56 1013.4
20260508050012 42 360 0.0 2.6 0.13 0.16 0.13 56 1013.7
20260508044509 43 360 0.9 7.8 0.11 0.12 0.09 58 1013.4
20260508043005 44 360 0.9 4.3 0.09 0.09 0.06 57 1013.3
20260508041601 45 360 0.0 4.3 0.06 0.06 0.03 56 1013.1
20260508040100 47 360 0.0 7.0 0.03 0.03 0.00 54 1012.6
20260508034556 48 360 0.9 3.5 0.01 0.01 0.01 50 1012.1
20260508033114 49 360 0.0 0.9 0.00 0.00 0.00 43 1011.2
20260508031555 49 360 0.0 0.9 0.00 0.00 0.00 43 1010.9
20260508030108 49 59 0.9 3.5 0.00 0.00 0.00 43 1011.0
20260508024654 49 360 0.0 1.7 0.00 0.00 0.00 44 1011.0
20260508023054 50 360 0.0 3.5 0.00 0.00 0.00 45 1011.0
20260508021553 50 53 0.9 2.6 0.00 0.00 0.00 44 1011.1
20260508020106 50 31 0.0 0.9 0.00 0.00 0.00 45 1011.0
20260508014559 50 27 0.0 1.7 0.00 0.00 0.00 45 1010.9
20260508013104 51 21 0.9 2.6 0.00 0.00 0.00 41 1010.8
20260508011554 51 309 0.0 2.6 0.00 0.00 0.00 41 1010.6
20260508010054 51 309 0.0 2.6 0.00 0.00 0.00 41 1010.5
20260508004648 51 315 0.0 2.6 0.00 0.00 0.00 40 1010.3
20260508003048 52 315 0.0 4.3 0.00 0.00 0.00 39 1010.2
20260508001554 52 326 0.0 1.7 0.00 0.00 0.00 38 1010.2
20260508000048 53 317 0.0 1.7 0.00 0.00 0.00 37 1010.0
20260507234547 53 324 0.0 1.7 0.00 0.00 0.00 37 1010.0
20260507233046 54 323 0.0 1.7 0.00 0.00 0.00 35 1009.7
20260507231547 54 324 0.0 2.6 0.00 0.00 0.00 35 1009.8
20260507230046 54 57 0.0 2.6 0.00 0.00 0.00 34 1010.0
20260507224545 55 254 0.0 1.7 0.00 0.00 0.00 35 1009.8
20260507223044 55 253 0.9 2.6 0.00 0.00 0.00 32 1009.7
20260507221543 56 32 0.9 5.2 0.00 0.00 0.00 34 1009.6
20260507220042 55 112 0.9 2.6 0.00 0.00 0.00 31 1009.7
20260507214546 56 63 0.0 3.5 0.00 0.01 0.00 32 1009.9
20260507213050 56 27 1.7 5.2 0.00 0.01 0.00 34 1009.9
20260507211548 57 65 3.5 8.7 0.00 0.01 0.00 28 1010.0
20260507210041 56 65 1.7 7.0 0.00 0.01 0.00 35 1009.8
20260507204539 57 186 0.0 4.3 0.00 0.01 0.00 31 1009.8
20260507203037 56 238 1.7 6.1 0.00 0.01 0.00 35 1009.9
20260507201543 56 57 2.6 6.1 0.00 0.01 0.00 31 1010.1
20260507200041 57 246 1.7 7.8 0.00 0.01 0.00 30 1010.1
20260507194533 56 317 0.9 7.0 0.00 0.01 0.00 32 1010.1
20260507193039 56 291 1.7 7.8 0.00 0.01 0.00 34 1010.4
20260507191531 58 302 1.7 7.0 0.00 0.01 0.00 34 1010.3
20260507190029 58 250 2.6 7.0 0.00 0.01 0.00 29 1010.4
20260507184527 56 331 2.6 6.1 0.00 0.01 0.00 32 1010.6
20260507183031 56 294 1.7 8.7 0.00 0.01 0.00 30 1010.8
20260507181524 57 250 1.7 7.8 0.00 0.01 0.00 35 1010.9
20260507180038 56 17 0.9 7.8 0.00 0.01 0.00 33 1011.1
20260507174525 56 290 0.9 6.1 0.00 0.04 0.00 35 1011.4
20260507173026 57 234 1.7 8.7 0.00 0.04 0.00 31 1011.3
20260507171518 56 207 2.6 8.7 0.00 0.04 0.00 32 1011.6
20260507170031 56 119 0.9 3.5 0.00 0.08 0.00 38 1011.8
20260507164515 54 292 0.0 3.5 0.00 0.08 0.00 32 1012.0
20260507163014 55 227 1.7 7.8 0.00 0.08 0.00 32 1012.1
20260507161511 55 241 2.6 11.3 0.00 0.08 0.00 34 1012.3
20260507160010 54 5 0.9 5.2 0.00 0.16 0.00 36 1012.5
20260507154510 54 250 3.5 8.7 0.00 0.16 0.00 37 1012.5
20260507153008 53 55 2.6 9.6 0.00 0.16 0.00 38 1012.7
20260507151504 53 216 1.7 6.1 0.00 0.16 0.00 40 1013.0
20260507150002 52 30 1.7 7.0 0.00 0.22 0.00 39 1013.1
20260507144559 51 233 0.9 7.0 0.00 0.22 0.00 42 1013.1
20260507143106 52 115 0.9 5.2 0.00 0.22 0.00 39 1013.1
20260507141552 51 50 0.9 4.3 0.00 0.22 0.00 41 1013.3
20260507140048 50 238 1.7 7.8 0.00 0.22 0.00 45 1013.6
20260507134544 50 54 1.7 6.1 0.00 0.30 0.00 43 1013.5
20260507133046 49 200 1.7 3.5 0.00 0.30 0.00 45 1013.6
20260507131545 48 255 1.7 5.2 0.00 0.30 0.00 45 1013.7
20260507130036 47 52 1.7 4.3 0.00 0.30 0.00 47 1013.7
20260507124527 47 194 0.0 4.3 0.00 0.32 0.00 51 1013.6
20260507123025 45 65 0.0 5.2 0.00 0.32 0.00 52 1013.4
20260507121519 44 315 1.7 5.2 0.00 0.32 0.00 52 1013.5
20260507120015 44 303 0.9 5.2 0.00 0.32 0.00 53 1013.4
20260507114513 43 360 0.0 4.3 0.00 0.32 0.00 54 1013.2
20260507113009 42 360 0.9 2.6 0.00 0.32 0.00 56 1013.1
20260507111507 41 360 0.9 3.5 0.00 0.32 0.00 58 1012.9
20260507110004 40 360 0.0 2.6 0.00 0.32 0.00 59 1012.9